GW6247 Weather Reports


time (UTC)temp
C
wind
direction
speed
KPH
gust
KPH
rain 1hr
cm
rain 24hr
cm
rain mn
cm
humidity
%
barometer
mb
20260503054523 10 61 0.0 0.0 0.00 0.03 0.03 78 1016.2
20260503053030 10 61 0.0 0.0 0.00 0.03 0.03 77 1016.2
20260503051529 10 61 1.6 3.2 0.00 0.03 0.03 78 1016.2
20260503050011 10 61 1.6 3.2 0.00 0.03 0.03 77 1016.3
20260503044536 11 62 1.6 6.4 0.00 0.03 0.03 77 1016.2
20260503043038 11 66 6.4 11.3 0.00 0.03 0.03 74 1015.8
20260503041524 12 180 1.6 6.4 0.00 0.03 0.03 76 1015.4
20260503040032 12 19 3.2 6.4 0.00 0.03 0.03 72 1015.3
20260503034528 13 13 1.6 4.8 0.00 0.03 0.03 66 1015.3
20260503033027 14 4 3.2 6.4 0.03 0.03 0.03 60 1015.2
20260503031527 14 274 4.8 11.3 0.03 0.03 0.03 54 1014.8
20260503030025 14 291 1.6 8.0 0.03 0.03 0.03 54 1014.7
20260503024526 15 292 6.4 16.1 0.03 0.03 0.03 55 1014.5
20260503023026 15 308 3.2 6.4 0.00 0.00 0.00 56 1014.5
20260503021528 17 291 1.6 6.4 0.00 0.00 0.00 50 1014.2
20260503020023 17 282 0.0 6.4 0.00 0.00 0.00 42 1014.0
20260503014527 17 282 1.6 4.8 0.00 0.00 0.00 40 1014.0
20260503013028 17 258 3.2 11.3 0.00 0.00 0.00 38 1014.2
20260503011530 17 293 6.4 22.5 0.00 0.00 0.00 39 1014.2
20260503010036 17 247 6.4 16.1 0.00 0.00 0.00 42 1014.0
20260503004523 18 12 9.7 19.3 0.00 0.00 0.00 44 1013.7
20260503003026 18 27 4.8 17.7 0.00 0.00 0.00 46 1013.4
20260503001528 20 34 9.7 12.9 0.00 0.00 0.00 35 1013.2
20260503000042 20 54 8.0 19.3 0.00 0.00 0.00 31 1013.3
20260502234526 20 200 9.7 27.4 0.00 0.00 0.00 30 1013.4
20260502233024 20 96 6.4 14.5 0.00 0.00 0.00 30 1013.5
20260502231533 21 68 8.0 19.3 0.00 0.00 0.00 29 1013.7
20260502230028 21 217 3.2 14.5 0.00 0.00 0.00 29 1013.7
20260502224526 21 179 3.2 16.1 0.00 0.00 0.00 29 1013.9
20260502223030 21 124 4.8 20.9 0.00 0.00 0.00 27 1014.1
20260502221505 22 190 8.0 24.1 0.00 0.00 0.00 27 1014.1
20260502220012 22 209 4.8 9.7 0.00 0.00 0.00 25 1014.2
20260502214504 22 198 3.2 22.5 0.00 0.00 0.00 28 1014.5
20260502213004 21 113 3.2 19.3 0.00 0.00 0.00 26 1014.7
20260502211504 22 79 3.2 14.5 0.00 0.00 0.00 28 1014.8
20260502210007 22 89 1.6 11.3 0.00 0.00 0.00 29 1014.9
20260502204513 21 162 1.6 9.7 0.00 0.00 0.00 30 1015.1
20260502203003 20 327 3.2 8.0 0.00 0.00 0.00 33 1015.3
20260502201503 20 290 3.2 8.0 0.00 0.00 0.00 35 1015.4
20260502200008 19 330 3.2 6.4 0.00 0.00 0.00 38 1015.5
20260502194512 19 297 3.2 9.7 0.00 0.00 0.00 35 1015.5
20260502193018 18 345 4.8 9.7 0.00 0.00 0.00 33 1015.7
20260502191503 18 313 4.8 9.7 0.00 0.00 0.00 39 1015.8
20260502190005 18 317 4.8 8.0 0.00 0.00 0.00 39 1015.9
20260502184510 17 333 3.2 6.4 0.00 0.00 0.00 39 1016.1
20260502183016 17 334 1.6 4.8 0.00 0.00 0.00 46 1016.2
20260502181521 16 331 1.6 4.8 0.00 0.00 0.00 47 1016.4
20260502163015 13 338 1.6 6.4 0.00 0.00 0.00 55 1017.0
20260502161512 13 340 3.2 6.4 0.00 0.00 0.00 53 1017.0
20260502151553 10 39 0.0 0.0 0.00 0.00 0.00 63 1017.0
20260502123021 6 166 3.2 6.4 0.00 0.00 0.00 61 1016.0
20260502121524 6 165 3.2 6.4 0.00 0.00 0.00 65 1016.0
20260502114526 6 162 3.2 8.0 0.00 0.00 0.00 69 1016.2
20260502113020 6 115 0.0 4.8 0.00 0.00 0.00 70 1016.1
20260502111520 6 115 0.0 3.2 0.00 0.00 0.00 63 1016.0
20260502110032 7 115 0.0 6.4 0.00 0.00 0.00 62 1016.1
20260502104525 7 108 0.0 0.0 0.00 0.00 0.00 60 1016.1
20260502103028 7 108 0.0 0.0 0.00 0.00 0.00 60 1016.1
20260502101519 7 108 0.0 0.0 0.00 0.00 0.00 60 1016.2
20260502091526 7 106 1.6 4.8 0.00 0.00 0.00 61 1016.3
20260502071527 9 294 0.0 4.8 0.00 0.00 0.00 50 1017.0